Hourly Data Report for January 01, 1961

HALIFAX STANFIELD INT'L A
NOVA SCOTIA

44°52'48.060" N
63°30'00.050" W
145.40 m
8202250
71395
YHZ

Download Data

Hourly Data (January 1961)
Hourly Data Report for January 1, 1961
TIME
LST
Temp Definition
°C
Dew Point Definition
°C
Rel Hum Definition
%
Precip. Amount Definition
mm

Wind Dir Definition
10's deg

Wind Spd Definition
km/h
Visibility Definition
km
Stn Press Definition
kPa
Hmdx Definition


Wind Chill Definition


Weather Definition


00:00 -4.4 -5.6 92   2 21 16.1 100.65   -11 Cloudy
01:00 -4.4 -5.0 96   36 19 24.1 100.66   -11 Cloudy
02:00 -5.0 -5.6 95   36 13 4.8 100.73   -10 Freezing Rain, Freezing Drizzle, Fog
03:00 -5.6 -6.1 96   5 14 4.8 100.79   -11 Freezing Rain, Freezing Drizzle, Fog
04:00 -5.6 -6.7 93   5 19 8.0 100.83   -12 Freezing Rain, Freezing Drizzle,Snow Grains, Fog
05:00 -5.6 -6.7 93   5 14 9.7 100.78   -11 Freezing Drizzle,Snow Grains, Fog
06:00 -5.6 -6.7 93   5 11 9.7 100.78   -10 Freezing Drizzle,Snow Grains
07:00 -5.6 -6.7 93   5 13 9.7 100.82   -11 Freezing Rain, Freezing Drizzle,Snow Grains
08:00 -4.4 -5.0 95   5 16 11.3 100.82   -10 Snow Grains
09:00 -3.9 -4.4 96   7 23 8.0 100.81   -11 Snow Grains, Fog
10:00 -2.8 -3.3 95   9 16 6.4 100.85   -8 Snow Grains, Fog
11:00 -1.7 -2.8 93   9 21 6.4 100.83   -8 Snow Grains, Fog
12:00 -1.1 -1.7 96   9 24 8.0 100.67   -7 Snow Grains, Fog
13:00 -0.6 -1.1 97   11 27 6.4 100.61   -7 Snow Grains, Fog
14:00 -0.6 -0.6 99   9 39 3.2 100.43   -8 Snow Grains, Fog
15:00 -0.6 -1.1 97   9 35 12.9 100.41   -8 Snow Grains
16:00 0.0 -0.6 94   7 32 9.7 100.44   -7 Fog
17:00 0.6 0.0 94   11 40 2.4 100.19     Fog
18:00 0.6 0.0 97   11 48 6.4 100.09     Fog
19:00 0.6 0.0 97   11 48 1.6 99.97     Snow,Ice Pellets, Fog
20:00 0.6 0.6 100   9 48 0.8 99.75     Moderate Snow,Blowing Snow
21:00 0.0 0.0 100   9 48 1.2 99.52   -8 Snow,Blowing Snow
22:00 0.0 0.0 100   9 51 1.2 99.26   -8 Snow,Ice Pellets,Blowing Snow
23:00 0.6 -0.6 91   11 56 2.4 99.07     Rain,Ice Pellets, Fog

Notes on Data Quality.

Legend

  • E = Estimated
  • M = Missing
  • NA = Not Available*
  • [empty] = Indicates an unobserved value
Date modified: